Weather History for Marianna, FL

Change the Weather History Date:

Friday, April 4, 2014

  Actual Average Record
Temperature  
Mean Temperature 74 °F 64 °F  
Max Temperature 84 °F 77 °F 87 °F (2011)
Min Temperature 66 °F 51 °F 45 °F (2005)
Cooling Degree Days 9    
Month to date cooling degree days 1  
Year to date cooling degree days 13  
Growing Degree Days 24 (Base 50)    
Moisture  
Dew Point 62 °F    
Average Humidity 68    
Maximum Humidity 90    
Minimum Humidity 38    
Precipitation  
Precipitation 0.00 in 0.17 in 0.81 in (2001)
Month to date precipitation 0.00 0.69  
Year to date precipitation 15.19 16.21  
Sea Level Pressure  
Sea Level Pressure 30.00 in    
Wind  
Wind Speed 7 mph (West)    
Max Wind Speed 12 mph    
Max Gust Speed -    
Visibility 10 miles    
Events      
T = Trace of Precipitation, MM = Missing Value Source: NWS Daily Summary

Daily Weather History Graph

Daily Weather History Graph

Search for Another Location

Airport:

Trip Planner

Search our weather history database for the weather conditions in past years. The results will help you decide how hot, cold, wet, or windy it might be!

Date:

Astronomy

Apr. 04, 2014 Rise Set
Actual Time 6:25 AM CDT 7:01 PM CDT
Civil Twilight 6:01 AM CDT 7:26 PM CDT
Nautical Twilight 5:33 AM CDT 7:54 PM CDT
Astronomical Twilight 5:03 AM CDT 8:24 PM CDT
Moon 9:56 AM CDT (4/4) 11:57 PM CDT (4/4)
Length of Visible Light 13h 24m
Length of Day
12h 35m
Waxing Crescent, 25% of the Moon is Illuminated
Apr 4
Waxing Crescent
Apr 7
First Quarter
Apr 15
Full
Apr 22
Last Quarter
Apr 29
New

Hourly Weather History & Observations

Time (CDT) Temp. Heat Index Dew Point Humidity Pressure Visibility Wind Dir Wind Speed Gust Speed Precip Events Conditions
12:53 AM - - - N/A% 30.01 in - North - - N/A   Unknown
1:53 AM - - - N/A% 30.00 in - North - - N/A   Unknown
2:53 AM - - - N/A% 29.98 in - North - - N/A   Unknown
3:53 AM - - - N/A% 29.97 in - North - - N/A   Unknown
4:53 AM - - - N/A% 29.95 in - North - - N/A   Unknown
5:53 AM - - - N/A% 29.95 in - North - - N/A   Unknown
6:53 AM - - - N/A% 30.00 in - North - - N/A   Unknown
7:53 AM - - - N/A% 30.01 in - North - - N/A   Unknown
8:53 AM 68.0 °F - 64.9 °F 90% 30.02 in 10.0 mi South 6.9 mph - N/A   Unknown
9:53 AM 72.0 °F - 64.0 °F 76% 30.06 in 10.0 mi SW 6.9 mph - N/A   Mostly Cloudy
10:53 AM 73.9 °F - 64.0 °F 71% 30.05 in 10.0 mi SSW 10.4 mph - N/A   Mostly Cloudy
11:19 AM 75.0 °F - 64.0 °F 69% 30.07 in 10.0 mi WSW 4.6 mph - N/A   Mostly Cloudy
11:30 AM 75.9 °F - 64.0 °F 67% 30.07 in 10.0 mi WSW 6.9 mph - N/A   Mostly Cloudy
11:53 AM 77.0 °F - 63.0 °F 62% 30.07 in 10.0 mi West 6.9 mph - N/A   Overcast
12:53 PM 80.1 °F 81.2 °F 62.1 °F 54% 30.05 in 10.0 mi WNW 3.5 mph - N/A   Scattered Clouds
1:53 PM 80.1 °F 81.2 °F 62.1 °F 54% 30.02 in 10.0 mi NNE 8.1 mph - N/A   Overcast
2:53 PM 81.0 °F 81.3 °F 59.0 °F 47% 30.00 in 10.0 mi North 5.8 mph - N/A   Partly Cloudy
3:53 PM 82.0 °F 82.1 °F 59.0 °F 45% 29.99 in 8.0 mi North 11.5 mph - N/A   Scattered Clouds
4:53 PM 82.0 °F 81.3 °F 54.0 °F 38% 29.99 in 10.0 mi NW 11.5 mph - N/A   Clear
5:53 PM 77.0 °F - 55.9 °F 48% 29.98 in 10.0 mi NW 8.1 mph - N/A   Partly Cloudy
6:53 PM 75.0 °F - 57.0 °F 53% 29.90 in 10.0 mi South 8.1 mph - N/A   Partly Cloudy
7:53 PM 71.1 °F - 63.0 °F 75% 29.94 in 10.0 mi WSW 3.5 mph - N/A   Clear
8:53 PM 68.0 °F - 63.0 °F 84% 29.96 in 10.0 mi West 3.5 mph - N/A   Clear
9:53 PM 66.9 °F - 62.1 °F 84% 29.98 in 10.0 mi West 5.8 mph - N/A   Clear
10:33 PM 66.0 °F - 62.1 °F 87% 29.99 in 10.0 mi West 3.5 mph - N/A   Mostly Cloudy
10:53 PM 66.9 °F - 63.0 °F 87% 29.99 in 10.0 mi WNW 4.6 mph - N/A   Overcast
11:35 PM 66.9 °F - 63.0 °F 87% 30.00 in 10.0 mi West 3.5 mph - N/A   Overcast
11:53 PM 66.9 °F - 63.0 °F 87% 30.00 in 10.0 mi West 3.5 mph - N/A   Overcast